Temp
15 15 16 15 16 16 16 16 17 17 17 17 17 17 17 17 17 17 18 19 18 17 17 16 16 17 18 18 18 19 21 23 24 23 24 23 22 22 21 22 22 22 21 21 19
14 14 15 15 15 16 16 16 16 16 17 17 17 17 17 16 17 18 19 18 18 18 17 17 18 18 19 19 19 20 22 23 23 23 23 22 22 22 22 22 22 21 21 19 18
13 13 14 14 15 15 16 16 16 16 16 17 17 17 17 17 16 20 19 19 18 17 17 18 19 19 20 20 20 21 21 22 22 21 21 22 21 21 22 22 22 22 20 19 18
13 13 14 14 14 14 15 16 16 17 17 16 17 17 17 17 21 19 19 18 18 17 18 18 19 19 20 20 21 20 22 21 21 20 20 21 21 22 21 21 20 19 18 18 19
13 14 14 14 14 14 15 15 16 16 17 17 16 16 16 17 19 19 19 18 18 17 18 18 19 20 20 21 21 21 22 21 21 20 20 20 21 21 21 21 19 18 17 18 18
12 12 13 13 14 14 15 15 16 16 16 17 16 16 16 19 19 18 18 18 17 17 18 18 19 20 20 21 21 22 21 21 21 21 21 20 21 21 21 21 19 18 18 18 18
9 12 12 13 14 14 14 15 15 16 16 17 16 16 15 19 18 18 17 17 17 18 18 18 18 19 20 21 20 20 20 22 22 22 21 20 20 21 21 21 19 19 18 18 17
9 9 11 12 13 13 14 15 15 16 16 16 16 15 17 18 18 17 17 18 17 17 18 18 18 18 19 20 20 21 22 21 24 22 21 20 20 24 22 20 19 20 19 19 17
9 9 9 11 12 13 14 15 16 16 16 15 15 14 19 18 17 17 17 18 18 17 17 17 17 19 19 20 21 22 21 23 23 22 22 20 21 23 20 20 20 20 20 19 18
9 9 10 10 11 12 14 14 16 16 15 14 13 15 17 18 18 18 18 18 18 18 17 17 18 20 20 21 20 23 23 23 22 22 21 21 21 22 22 20 19 20 20 19 18
8 9 10 10 11 11 13 14 15 14 13 17 19 19 19 18 17 18 18 18 18 18 19 19 19 20 22 22 22 22 21 21 23 23 20 20 21 22 22 21 20 19 18 18 17
8 9 10 10 10 11 12 13 10 11 13 16 16 17 18 18 19 18 18 18 19 19 20 20 19 21 23 22 21 20 20 21 22 22 20 20 21 22 22 21 19 18 17 16 15
7 8 9 10 11 10 10 11 11 10 13 16 17 17 18 17 18 19 18 18 20 20 21 20 22 21 21 20 19 20 20 21 21 21 21 20 20 22 21 19 17 17 16 15 13
6 7 8 10 9 10 10 10 10 10 14 19 17 17 18 18 18 20 18 19 21 20 21 21 22 21 20 20 20 19 22 21 20 19 20 20 20 22 21 18 18 18 16 15 11
5 5 7 7 8 8 8 10 11 11 16 21 18 16 18 18 20 19 19 19 20 20 21 21 20 20 19 20 21 20 19 19 19 19 19 20 19 23 21 19 19 18 16 14 11
5 5 6 6 6 7 8 10 10 14 16 19 18 17 18 17 20 17 19 19 19 20 21 21 20 20 20 20 20 20 19 18 19 19 18 21 20 23 21 21 20 17 15 13 11
4 5 5 6 6 7 9 9 13 15 20 20 19 18 18 19 19 18 18 18 18 17 18 19 20 19 19 18 18 18 19 18 18 17 19 19 19 21 20 19 19 17 16 13 11
3 4 5 6 6 6 7 11 12 17 18 19 18 18 18 19 19 19 18 18 19 20 20 19 19 20 19 20 19 18 19 17 13 19 19 17 17 21 21 18 16 15 15 12 10
3 3 4 4 5 6 7 9 14 16 18 17 18 18 17 19 19 19 18 19 20 20 19 20 20 21 20 20 21 20 18 20 19 19 17 19 20 18 18 17 15 14 14 12 11
2 3 4 5 5 5 8 9 13 15 16 15 14 17 17 18 16 18 18 20 20 21 21 21 20 19 18 19 19 19 20 18 18 15 18 22 22 22 17 18 16 16 14 13 11
2 4 6 5 5 6 7 9 11 12 13 12 13 15 17 18 18 17 18 20 20 20 20 19 20 17 16 16 18 17 18 18 20 20 20 22 23 23 21 19 18 17 15 14 12
2 3 6 5 6 8 7 10 10 11 12 13 11 12 13 15 16 18 18 19 19 19 17 19 20 18 16 19 20 20 19 20 19 19 19 21 21 21 22 20 19 17 15 14 12
2 2 4 5 5 6 9 10 10 10 10 11 11 11 12 11 12 15 17 18 16 16 17 18 18 18 19 17 17 18 19 20 21 21 19 20 22 21 21 20 18 17 14 14 12
1 2 3 3 6 8 9 9 10 10 10 9 9 10 11 10 11 11 14 14 12 14 16 17 18 18 20 20 19 17 18 19 20 20 19 21 21 18 19 19 18 16 15 13 12
1 1 4 4 5 8 9 9 9 9 10 9 9 9 10 10 11 10 11 13 13 12 13 15 15 18 20 21 21 20 19 19 19 20 21 22 22 22 19 19 18 16 15 14 13
1 -0 2 5 5 7 7 7 8 9 9 8 8 8 8 5 6 9 10 8 8 10 12 14 14 18 18 20 18 19 20 19 19 20 20 21 21 23 21 19 18 17 15 14 13
0 0 0 3 6 6 7 7 7 8 8 8 9 9 9 8 8 7 6 6 7 8 8 10 14 15 16 19 18 16 19 19 19 20 20 20 22 22 21 20 18 17 15 14 13
Height
1532 1531 1529 1527 1526 1524 1523 1521 1519 1517 1515 1514 1512 1511 1510 1509 1509 1509 1509 1509 1506 1507 1507 1508 1511 1511 1512 1512 1514 1512 1505 1496 1492 1496 1492 1497 1499 1499 1502 1501 1500 1501 1502 1502 1503
1531 1529 1528 1527 1526 1524 1522 1520 1518 1516 1514 1512 1511 1510 1510 1508 1507 1507 1507 1505 1504 1505 1507 1510 1511 1512 1510 1510 1512 1509 1501 1491 1495 1495 1496 1498 1499 1498 1500 1497 1498 1500 1501 1503 1503
1530 1529 1527 1525 1524 1523 1521 1519 1517 1514 1512 1510 1509 1509 1508 1508 1508 1503 1502 1503 1504 1505 1508 1510 1510 1510 1509 1509 1508 1503 1501 1495 1498 1499 1499 1498 1499 1499 1498 1497 1496 1498 1500 1502 1502
1531 1529 1527 1525 1524 1522 1520 1518 1516 1513 1510 1508 1507 1507 1507 1507 1505 1501 1501 1502 1503 1505 1507 1508 1509 1509 1508 1507 1504 1504 1498 1499 1499 1500 1500 1499 1498 1496 1496 1496 1497 1499 1500 1500 1501
1530 1528 1526 1524 1522 1520 1518 1516 1513 1511 1509 1507 1505 1505 1507 1507 1503 1500 1501 1502 1503 1504 1505 1506 1507 1508 1505 1501 1502 1501 1496 1498 1498 1499 1499 1499 1497 1495 1492 1493 1496 1497 1498 1498 1499
1529 1527 1525 1523 1521 1518 1516 1514 1512 1509 1507 1505 1504 1503 1505 1505 1500 1498 1500 1501 1503 1505 1505 1505 1505 1505 1504 1500 1500 1496 1497 1495 1495 1495 1495 1495 1493 1492 1490 1490 1494 1495 1495 1496 1496
1528 1525 1523 1521 1519 1517 1515 1512 1510 1507 1505 1503 1502 1501 1503 1500 1497 1499 1499 1500 1503 1504 1505 1504 1504 1505 1501 1500 1499 1499 1497 1490 1488 1490 1491 1493 1490 1485 1487 1487 1490 1491 1492 1493 1494
1527 1524 1522 1520 1517 1515 1513 1509 1507 1505 1503 1501 1499 1501 1497 1493 1496 1497 1499 1501 1502 1504 1504 1504 1503 1503 1502 1500 1498 1496 1490 1491 1476 1487 1489 1494 1487 1473 1479 1485 1486 1486 1487 1488 1490
1525 1523 1520 1518 1515 1512 1510 1507 1504 1502 1501 1500 1500 1500 1495 1489 1491 1494 1497 1499 1501 1503 1503 1503 1503 1501 1500 1499 1492 1487 1488 1480 1480 1484 1486 1489 1481 1473 1480 1482 1482 1482 1482 1483 1485
1523 1520 1518 1516 1513 1510 1507 1504 1501 1499 1499 1499 1499 1502 1489 1487 1488 1490 1494 1498 1500 1502 1503 1502 1500 1497 1493 1489 1493 1479 1478 1477 1483 1479 1484 1483 1477 1473 1474 1478 1478 1478 1479 1481 1481
1521 1518 1516 1514 1511 1509 1505 1503 1502 1500 1498 1493 1490 1486 1485 1485 1486 1488 1490 1494 1497 1499 1497 1495 1495 1490 1482 1481 1480 1480 1483 1483 1475 1475 1484 1480 1473 1468 1468 1471 1474 1477 1478 1479 1480
1520 1517 1514 1512 1510 1508 1505 1506 1506 1507 1495 1487 1484 1484 1484 1485 1483 1484 1490 1491 1491 1489 1490 1490 1491 1480 1476 1478 1482 1484 1485 1480 1473 1475 1482 1475 1468 1462 1463 1465 1471 1474 1477 1479 1478
1517 1514 1512 1509 1507 1507 1507 1505 1505 1504 1497 1474 1470 1471 1474 1481 1477 1476 1482 1483 1482 1484 1480 1482 1473 1477 1477 1481 1485 1481 1482 1478 1476 1474 1475 1473 1463 1452 1460 1467 1473 1475 1476 1477 1479
1516 1512 1510 1508 1508 1505 1507 1505 1504 1504 1491 1460 1461 1460 1465 1473 1471 1471 1473 1478 1476 1476 1476 1475 1472 1475 1479 1478 1478 1481 1470 1475 1480 1484 1480 1472 1474 1449 1455 1465 1471 1471 1473 1476 1479
1513 1512 1508 1509 1507 1507 1505 1503 1503 1506 1491 1448 1456 1458 1458 1463 1458 1461 1468 1473 1469 1472 1471 1468 1470 1471 1476 1474 1472 1477 1477 1478 1480 1481 1477 1469 1477 1442 1447 1458 1461 1466 1472 1475 1477
1511 1508 1509 1507 1507 1506 1503 1502 1505 1502 1477 1449 1453 1456 1458 1460 1457 1463 1464 1469 1471 1469 1467 1463 1467 1468 1467 1470 1469 1473 1479 1480 1479 1479 1481 1454 1466 1438 1446 1449 1454 1465 1470 1474 1475
1510 1506 1506 1505 1505 1503 1503 1503 1500 1481 1447 1441 1447 1451 1451 1452 1454 1459 1461 1461 1463 1472 1467 1465 1463 1467 1467 1473 1476 1477 1477 1485 1482 1486 1469 1459 1465 1445 1444 1451 1455 1462 1467 1473 1474
1506 1504 1501 1502 1501 1501 1502 1505 1487 1450 1447 1444 1448 1450 1450 1445 1450 1453 1453 1456 1456 1453 1452 1463 1463 1455 1459 1457 1466 1471 1469 1482 1506 1473 1466 1470 1468 1443 1440 1453 1458 1462 1467 1471 1473
1501 1502 1498 1497 1497 1500 1500 1492 1459 1454 1452 1451 1447 1446 1448 1445 1446 1446 1447 1443 1442 1447 1455 1448 1446 1443 1451 1453 1455 1461 1470 1461 1470 1468 1477 1455 1444 1445 1447 1453 1457 1461 1466 1469 1472
1501 1499 1494 1493 1494 1496 1494 1473 1459 1459 1455 1459 1455 1443 1442 1442 1449 1444 1442 1429 1433 1435 1442 1439 1445 1447 1455 1455 1456 1457 1454 1470 1472 1487 1468 1430 1433 1427 1445 1445 1452 1457 1462 1466 1471
1497 1495 1489 1488 1490 1491 1479 1471 1466 1464 1464 1464 1458 1449 1437 1435 1431 1437 1430 1423 1424 1428 1435 1440 1443 1453 1458 1453 1444 1458 1456 1455 1450 1452 1449 1435 1420 1415 1426 1435 1443 1451 1457 1462 1468
1491 1486 1482 1484 1484 1475 1474 1469 1468 1463 1461 1460 1464 1460 1453 1443 1433 1427 1428 1426 1425 1426 1432 1432 1433 1439 1448 1436 1437 1438 1443 1443 1447 1451 1446 1439 1430 1421 1423 1432 1439 1446 1454 1461 1465
1476 1474 1477 1476 1469 1468 1465 1462 1459 1461 1462 1462 1458 1459 1456 1455 1449 1432 1426 1426 1428 1429 1431 1429 1431 1437 1435 1443 1441 1438 1433 1432 1433 1433 1442 1441 1424 1423 1427 1433 1439 1445 1453 1458 1463
1476 1462 1466 1464 1459 1457 1454 1452 1452 1455 1457 1461 1461 1457 1453 1456 1453 1444 1432 1430 1435 1432 1429 1427 1424 1423 1414 1418 1416 1432 1426 1427 1428 1433 1434 1424 1422 1430 1430 1433 1437 1444 1450 1456 1461
1468 1453 1450 1449 1450 1449 1449 1449 1449 1450 1452 1455 1455 1456 1454 1448 1444 1444 1442 1438 1439 1438 1432 1429 1430 1418 1408 1402 1406 1409 1414 1417 1422 1415 1422 1412 1411 1411 1423 1428 1433 1440 1447 1452 1457
1456 1456 1449 1444 1442 1441 1440 1444 1445 1446 1450 1451 1451 1453 1456 1461 1458 1446 1444 1448 1447 1440 1432 1426 1425 1415 1409 1405 1412 1411 1405 1407 1410 1412 1414 1409 1410 1408 1416 1425 1431 1436 1442 1448 1453
1444 1446 1446 1432 1433 1433 1433 1436 1439 1444 1446 1447 1447 1447 1446 1449 1452 1453 1451 1448 1444 1442 1439 1431 1424 1420 1411 1399 1412 1417 1396 1400 1400 1404 1406 1411 1401 1407 1412 1418 1423 1429 1436 1442 1449
Wind_Speed
8 9 10 10 10 10 11 12 12 13 12 12 11 11 9 9 10 9 7 7 7 4 3 3 3 3 3 3 5 4 6 7 7 6 3 5 6 5 3 8 5 5 8 5 7
8 9 10 11 11 11 12 12 13 13 12 13 13 11 9 9 10 14 12 9 6 5 5 7 5 5 4 4 5 7 7 6 6 4 4 3 7 7 5 9 9 7 6 4 6
9 10 10 11 11 12 12 13 14 13 14 13 13 10 8 7 11 12 14 9 8 6 5 7 5 5 7 6 8 5 8 4 5 6 5 7 8 10 9 9 9 5 4 4 3
11 11 12 12 13 14 14 14 15 16 15 14 11 8 7 3 4 1 8 9 9 7 6 5 7 8 5 8 8 8 10 7 3 2 5 9 10 9 12 13 2 5 4 4 5
12 12 13 13 13 13 14 15 15 16 18 16 10 7 6 8 12 9 9 9 9 8 8 7 9 9 11 7 8 12 11 7 8 7 10 12 13 14 15 13 9 8 7 7 8
13 13 14 15 16 15 15 16 16 16 16 14 10 7 7 14 5 10 11 11 9 9 8 9 8 8 10 10 9 5 9 11 10 12 13 12 14 15 15 16 13 11 11 10 9
17 16 15 16 17 17 17 17 17 16 16 12 9 7 10 14 4 11 15 12 10 8 9 9 8 8 3 9 13 11 12 12 14 15 12 7 15 17 18 11 16 15 13 12 11
17 20 18 17 17 19 18 18 17 16 14 10 7 5 9 10 12 14 15 12 10 8 6 7 7 7 8 5 8 10 12 11 4 5 8 7 15 10 8 11 16 16 16 13 13
18 18 21 18 17 19 19 19 17 16 12 8 4 7 11 11 16 16 18 15 12 8 6 5 5 8 5 10 10 11 12 8 6 9 8 10 11 6 6 11 15 17 16 15 15
19 20 20 21 20 19 18 17 15 13 11 8 8 6 14 9 11 18 19 15 14 11 8 10 8 9 10 11 11 8 10 9 8 5 8 14 17 16 18 12 16 16 14 15 15
18 19 21 20 19 20 18 12 6 5 9 13 6 13 3 7 10 18 21 19 15 15 14 14 10 14 15 14 16 13 13 15 13 6 8 16 16 14 12 14 14 13 11 12 16
19 20 21 19 17 16 11 6 4 8 14 20 27 26 19 9 10 17 24 21 20 18 17 10 15 17 13 8 9 12 16 16 13 5 8 16 18 15 13 11 11 6 8 11 14
23 22 20 16 11 8 5 4 8 6 10 20 29 31 28 26 20 23 30 30 22 19 19 18 8 3 12 12 13 15 15 15 15 11 13 17 22 15 7 7 6 6 4 6 8
25 23 22 19 3 4 1 6 9 5 7 12 9 10 25 21 17 26 32 30 17 20 19 15 21 12 10 14 11 14 13 11 12 8 8 2 7 6 12 10 9 5 1 3 5
26 23 18 15 13 6 8 8 6 3 8 10 9 2 6 23 9 24 27 33 22 18 14 9 11 13 16 18 15 14 0 5 8 10 14 16 7 9 10 10 11 4 2 2 3
23 24 19 11 11 10 10 5 1 6 13 5 6 7 9 24 13 5 24 30 22 20 17 20 1 10 13 5 9 5 5 6 8 8 9 18 12 6 10 10 8 6 7 4 3
24 23 19 14 7 12 7 3 6 10 2 7 6 7 14 15 20 12 20 24 15 17 21 19 20 9 9 8 5 10 7 3 5 5 4 4 5 13 8 6 6 8 9 5 3
24 23 21 14 11 9 4 5 14 11 23 1 1 5 10 12 19 17 18 23 27 20 10 18 11 24 18 20 9 17 15 5 5 4 2 2 7 2 6 10 10 9 8 7 4
22 18 16 11 9 9 10 12 11 14 16 20 17 20 16 16 9 19 23 24 25 27 16 11 12 6 6 16 16 11 13 13 13 11 6 7 10 5 9 11 11 11 11 9 6
17 18 21 13 9 12 10 23 18 17 16 9 15 13 16 19 14 12 15 14 25 26 23 11 8 10 6 8 10 10 10 7 6 4 6 8 10 6 15 15 13 12 14 12 9
15 14 14 13 10 14 12 16 20 33 28 8 14 18 19 20 20 19 11 15 19 19 21 19 12 7 9 14 16 10 12 8 5 9 4 5 3 7 14 16 15 14 16 15 12
17 5 14 15 17 17 14 19 15 28 23 18 7 19 21 22 19 21 25 19 17 13 22 26 12 12 16 1 17 20 18 18 7 9 8 9 3 4 11 12 15 16 17 16 14
14 20 17 20 10 11 18 22 26 23 21 20 20 17 15 19 21 17 19 15 5 10 12 13 14 13 13 7 7 12 20 20 19 11 12 8 1 4 10 11 14 17 18 18 16
12 4 20 22 24 21 21 22 22 25 19 9 14 22 20 19 18 11 16 5 7 8 14 7 15 24 17 14 14 12 21 23 20 14 16 16 5 11 12 13 14 18 19 19 18
26 6 9 5 17 22 20 18 17 18 19 18 14 16 21 24 25 19 25 23 14 8 5 7 13 23 24 25 9 13 21 26 27 26 15 16 16 13 17 17 19 21 21 21 20
27 7 17 22 21 20 18 21 23 19 15 12 15 17 17 14 16 20 15 15 7 8 4 6 14 19 22 23 12 14 16 22 28 25 24 17 12 6 19 21 20 23 24 23 23
35 33 12 15 17 16 16 22 18 16 18 19 18 18 19 18 23 26 23 17 9 3 4 5 12 17 18 20 11 15 23 20 21 24 24 21 21 9 11 19 25 27 27 27 26
Wind_Direction
344 340 341 341 339 340 341 339 338 331 321 312 307 292 282 276 269 268 259 244 230 221 202 180 194 194 194 222 241 251 256 259 250 246 250 156 237 186 264 267 221 258 276 334 327
343 340 337 336 335 334 332 334 336 333 323 313 307 299 291 285 274 256 243 240 207 168 155 179 198 198 214 230 225 243 258 302 7 294 254 199 261 268 253 240 247 237 248 295 310
344 338 336 332 330 328 327 326 327 330 324 313 303 298 282 293 292 257 226 220 192 180 182 213 232 222 256 251 229 208 258 22 257 260 255 268 252 242 258 259 263 270 280 281 306
335 335 333 331 329 328 325 323 321 325 323 315 302 286 264 237 286 275 202 199 188 178 196 201 215 228 253 237 228 262 237 255 282 229 248 253 264 253 244 260 278 219 237 253 264
329 326 324 322 322 322 321 320 319 322 323 319 306 272 251 244 252 267 188 187 194 191 197 211 228 235 251 260 249 245 265 245 244 247 257 267 261 266 263 249 231 223 230 241 254
326 324 321 321 320 320 320 317 316 317 319 315 300 262 229 257 238 231 201 197 196 203 213 214 230 251 283 263 248 331 278 263 248 254 261 257 260 247 252 242 228 229 235 244 253
328 321 318 317 319 320 321 316 314 313 314 309 291 249 248 236 243 208 191 195 203 208 228 222 228 216 283 255 244 268 271 265 245 246 242 266 262 247 256 222 232 234 244 247 257
327 327 318 322 324 317 317 316 311 309 307 301 285 232 253 251 225 199 198 202 204 214 227 217 207 230 240 290 253 254 255 268 151 200 222 221 278 294 199 225 242 245 248 249 263
312 321 324 326 323 318 316 316 312 305 294 287 282 217 259 249 220 203 199 202 198 205 198 197 207 236 204 239 248 221 270 233 256 190 254 219 283 314 215 241 252 256 258 269 280
302 304 308 320 325 325 320 320 313 295 280 272 243 238 233 235 212 200 198 200 194 201 203 212 225 233 218 229 244 293 234 259 260 198 230 261 268 270 267 237 260 262 270 278 292
329 317 306 306 317 334 329 350 302 258 241 235 286 233 305 203 185 199 192 190 204 209 225 204 229 230 242 227 257 297 284 279 282 280 271 268 268 276 266 247 250 263 272 301 310
332 329 325 322 309 329 347 347 2 302 294 261 257 250 246 228 218 206 193 194 201 214 224 206 238 249 259 270 264 256 266 268 276 307 275 277 278 278 261 260 259 263 290 317 325
327 325 326 328 326 346 360 7 338 321 265 275 241 235 231 223 227 203 194 202 206 223 224 232 261 19 254 228 243 244 256 270 285 307 279 268 281 240 210 219 197 228 298 328 349
323 321 324 332 14 333 7 327 347 320 276 255 201 238 220 210 234 224 201 202 221 229 230 241 250 228 228 234 233 260 255 256 278 286 283 115 288 252 174 200 201 225 330 30 1
322 326 318 329 315 329 279 296 325 299 286 60 147 212 201 191 151 207 202 207 220 217 217 227 214 231 236 245 243 261 204 244 264 273 285 272 246 243 163 200 201 184 157 110 35
319 320 325 321 309 299 285 290 288 230 245 173 147 183 183 204 210 135 193 212 226 237 226 244 214 204 227 236 237 112 212 239 258 264 262 252 209 253 181 218 136 170 163 135 82
313 316 308 303 270 285 279 323 222 232 158 206 206 192 212 200 216 186 196 197 201 211 229 223 228 212 189 184 191 198 215 249 235 200 261 56 229 253 114 134 153 160 164 146 113
310 304 304 296 281 275 263 221 232 254 231 288 43 225 238 216 217 204 204 210 216 217 240 218 222 208 201 209 198 206 209 197 234 245 263 157 235 240 129 146 145 150 161 156 141
309 305 289 289 257 225 202 219 234 248 275 288 284 263 256 240 233 213 226 221 215 219 213 224 227 203 183 207 216 184 223 245 275 263 275 219 235 172 173 169 167 166 176 169 166
297 291 276 260 221 197 221 234 243 260 296 319 266 245 233 234 213 219 219 226 226 213 224 249 239 183 179 193 224 234 180 178 217 234 246 216 241 230 188 192 180 181 186 172 170
277 279 274 188 180 204 230 237 252 259 273 287 267 260 259 246 229 224 239 219 215 214 199 227 245 170 155 211 188 182 201 220 224 229 283 289 198 5 177 190 180 185 184 177 176
244 241 228 199 208 216 235 241 250 257 268 277 260 275 274 282 277 249 242 245 210 212 196 209 228 211 210 154 229 205 213 214 213 218 233 287 289 188 148 169 170 174 175 176 170
231 226 227 203 224 233 241 250 241 255 259 263 263 241 269 298 288 269 261 258 203 195 194 205 230 239 186 196 212 226 216 227 225 256 255 239 166 163 145 160 170 166 171 173 167
262 227 213 215 227 235 227 241 252 254 259 254 276 279 270 257 268 272 274 54 352 261 233 265 219 223 221 221 176 202 210 215 223 224 232 235 210 190 183 180 174 171 174 174 175
248 230 197 205 217 226 238 246 250 250 247 237 250 261 261 266 260 263 265 273 320 310 274 185 232 241 244 257 235 208 204 204 211 218 226 240 233 204 193 194 185 177 177 178 178
243 229 226 235 216 216 216 231 237 239 251 245 246 248 257 272 284 276 308 280 243 299 276 196 249 253 249 243 229 237 225 212 214 221 231 247 243 272 186 191 185 184 182 185 185
233 240 266 215 209 214 201 214 228 242 256 255 264 268 267 257 268 272 291 287 238 269 315 291 231 245 249 230 220 251 222 211 216 220 225 231 239 249 201 189 191 188 188 189 188